[[{"header":{"parameterUnit":"m.s-1","parameterCategory":1,"la1":30.2991,"la2":30.254,"lo1":-89.0895,"lo2":-89.0444,"dy":0.0017,"dx":0.0017,"nx":28,"ny":28,"refTime":"2025-09-02T09:00:00:Z","depth":0,"parameterNumber":2,"parameterNumberName":"U-component_of_WINDS"},"data":[0,0,0,0,0,0,0,0,0,0,0,0,0,0,0,0,0,0,0,0,0,0,0,0,0,0,0,0,0,0,0,0,0,0,0,0,0,0,0,0,0,0,0,0,0,0,0,0,0,0,0,0,0,0,0,0,0,0,-3.076,-3.076,0,-3.072,-3.072,-3.0719,-3.0588,-3.0586,-3.0583,-3.058,-3.0541,-3.0543,-3.0545,0,0,0,0,0,0,0,0,0,0,0,0,0,-3.0727,-3.0729,-3.0761,-3.076,-3.076,-3.072,-3.072,-3.0719,-3.0589,-3.0585,-3.0582,-3.0579,-3.0541,-3.0543,-3.0545,0,0,0,0,0,0,0,0,0,0,0,0,0,-3.072,-3.0729,-3.0761,-3.069,-3.0683,-3.0721,-3.072,-3.0719,-3.059,-3.0585,-3.0581,-3.0577,-3.054,-3.0543,-3.0545,-3.0649,0,0,-3.0553,-3.0554,0,0,0,0,0,0,0,0,-3.0721,-3.0722,-3.0701,-3.0695,-3.0687,-3.0655,-3.0694,-3.0696,-3.0591,-3.0625,-3.058,-3.0575,-3.0583,-3.0582,-3.0584,-3.0647,-3.0645,-3.0553,-3.0555,-3.0556,-3.0557,0,0,0,0,0,0,0,-3.0721,-3.0723,-3.0745,-3.0701,-3.0692,-3.0661,-3.0655,-3.0694,-3.0629,-3.0622,-3.0612,-3.0609,-3.0578,-3.0582,-3.0582,-3.0645,-3.0553,-3.0555,-3.0557,-3.0558,-3.0792,-3.0797,0,0,0,0,0,0,-3.0732,-3.0724,-3.0746,-3.0743,-3.0693,-3.0665,-3.0658,-3.067,-3.0628,-3.0618,-3.0613,-3.0603,-3.0579,-3.0579,-3.058,-3.0699,-3.0556,-3.0558,-3.056,-3.0788,-3.0793,-3.0798,0,0,0,0,0,0,-3.0731,-3.0735,-3.0747,-3.0731,-3.073,-3.067,-3.0684,-3.0671,-3.0674,-3.0622,-3.061,-3.0628,-3.0576,-3.0577,-3.0633,-3.0696,-3.0559,-3.0562,-3.0782,-3.0789,-3.0796,-3.0937,0,0,0,0,0,0,-3.0731,-3.0736,-3.0773,-3.0733,-3.0732,-3.08,-3.0688,-3.0674,-3.0679,-3.0666,-3.0633,-3.0623,-3.0573,-3.063,-3.0635,-3.0697,-3.0564,-3.0776,-3.0785,-3.0793,-3.0927,-3.0948,-3.0967,0,0,0,0,0,-3.073,-3.0815,-3.0776,-3.0779,-3.0778,-3.0804,-3.0803,-3.0743,-3.0684,-3.0722,-3.0689,-3.0624,-3.0688,-3.0637,-3.0642,-3.0705,-3.0772,-3.0783,-3.0793,-3.0918,-3.0944,-3.0966,0,0,0,0,0,0,-3.0865,-3.0809,-3.0764,-3.0839,-3.0827,-3.0782,-3.0828,-3.0773,-3.0778,-3.0766,-3.0691,-3.0685,-3.0752,-3.0734,-3.0678,-3.0804,-3.0719,-3.0731,-3.0812,-3.0837,-3.0857,-3.0859,-3.0566,0,0,0,0,0,-3.0904,-3.0929,-3.0878,-3.0949,-3.0945,-3.0889,-3.0898,-3.0852,-3.0837,-3.0832,-3.0802,-3.0792,-3.0809,-3.0822,-3.0836,-3.0924,-3.0915,-3.097,-3.099,-3.1007,-3.1018,-3.1064,-3.1088,-3.0833,-3.0833,-3.0833,0,0,-3.0983,-3.0956,-3.0976,-3.0976,-3.0961,-3.099,-3.0885,-3.092,-3.094,-3.0837,-3.0888,-3.0867,-3.085,-3.0923,-3.0954,-3.091,-3.1087,-3.102,-3.1034,-3.1036,-3.1077,-3.1102,-3.1123,-3.084,-3.0839,-3.0838,0,0,-3.1143,-3.1124,-3.1181,-3.1169,-3.1149,-3.111,-3.1124,-3.1088,-3.1069,-3.1119,-3.1042,-3.1067,-3.1099,-3.109,-3.109,-3.1248,-3.1189,-3.1255,-3.1359,-3.1405,-3.1425,-3.1442,-3.1499,-3.152,-3.1266,-3.1267,-3.1267,0,-3.1244,-3.1283,-3.1217,-3.1257,-3.1259,-3.1168,-3.1225,-3.1217,-3.1203,-3.1207,-3.1158,-3.1197,-3.1179,-3.1249,-3.1288,-3.1291,-3.1305,-3.1257,-3.1427,-3.1444,-3.1459,-3.1512,-3.1534,-3.1275,-3.1274,-3.1273,-3.1272,0,-3.1409,-3.1438,-3.1487,-3.1474,-3.1482,-3.1531,-3.1473,-3.149,-3.1445,-3.1412,-3.1465,-3.144,-3.1447,-3.1461,-3.1417,-3.1525,-3.1499,-3.144,-3.1353,-3.1493,-3.1541,-3.1561,-3.1286,-3.1283,-3.1281,-3.1279,0,0,-3.1651,-3.1602,-3.1621,-3.1615,-3.1586,-3.1608,-3.1653,-3.1659,-3.1675,-3.1669,-3.1705,-3.1735,-3.1681,-3.1681,-3.1636,-3.1676,-3.1803,-3.1612,-3.1611,-3.1648,-3.1921,-3.1965,-3.1989,-3.1765,-3.1768,-3.1771,-3.1922,0,-3.1801,-3.1874,-3.1817,-3.1901,-3.1927,-3.1841,-3.1881,-3.1869,-3.184,-3.1859,-3.1827,-3.185,-3.1776,-3.1776,-3.1812,-3.178,-3.1857,-3.1769,-3.1798,-3.18,-3.1804,-3.2014,-3.206,-3.2204,-3.1941,-3.1944,-3.1946,0,-3.1986,-3.1988,-3.2074,-3.2041,-3.205,-3.2086,-3.2088,-3.2107,-3.2092,-3.2068,-3.207,-3.2014,-3.2057,-3.1974,-3.2033,-3.1974,-3.1983,-3.197,-3.1974,-3.1973,-3.1881,-3.2019,-3.2249,-3.227,-3.1976,-3.1973,-3.1971,0,-3.2153,-3.2177,-3.2232,-3.2229,-3.2192,-3.222,-3.2206,-3.2187,-3.2194,-3.2197,-3.2201,-3.2209,-3.2213,-3.2221,-3.217,-3.2113,-3.2236,-3.2148,-3.2217,-3.2219,-3.2246,-3.2245,-3.248,-3.2254,-3.2254,-3.2253,-3.2253,0,-3.2326,-3.2383,-3.2306,-3.234,-3.2401,-3.2336,-3.2398,-3.2375,-3.2359,-3.2388,-3.2315,-3.2344,-3.2274,-3.2296,-3.2257,-3.2312,-3.2315,-3.2297,-3.2286,-3.2303,-3.2305,-3.2307,-3.2296,-3.2259,-3.2258,-3.2256,-3.2255,0,-3.2522,-3.2473,-3.2527,-3.2488,-3.248,-3.2527,-3.2493,-3.2524,-3.2491,-3.2528,-3.2533,-3.2482,-3.2504,-3.2454,-3.2469,-3.2443,-3.2521,-3.2494,-3.2526,-3.2518,-3.259,-3.2584,-3.2833,-3.2863,-3.262,-3.2622,-3.2624,0,-3.2635,-3.2677,-3.2642,-3.2656,-3.2646,-3.2669,-3.2676,-3.2614,-3.2626,-3.2613,-3.2645,-3.2661,-3.267,-3.271,-3.2675,-3.2686,-3.2659,-3.2746,-3.266,-3.2676,-3.2659,-3.2657,-3.2661,-3.2763,-3.2766,-3.2768,-3.277,0,-3.2842,-3.2816,-3.2829,-3.2835,-3.2846,-3.2848,-3.2844,-3.286,-3.2794,-3.2811,-3.2832,-3.2839,-3.2855,-3.2872,-3.2876,-3.2863,-3.2807,-3.2798,-3.2814,-3.2832,-3.2848,-3.284,-3.2573,-3.2792,-3.279,-3.2788,-3.2787,-3.2786,-3.2999,-3.3032,-3.3013,-3.303,-3.3021,-3.302,-3.3047,-3.3018,-3.3034,-3.3041,-3.3004,-3.3034,-3.302,-3.3019,-3.3012,-3.3035,-3.2996,-3.302,-3.3026,-3.3033,-3.3045,-3.2846,-3.3036,-3.3035,-3.3034,-3.3034,-3.3033,0,-3.3201,-3.3185,-3.3202,-3.3199,-3.3214,-3.3159,-3.3153,-3.3169,-3.3196,-3.3186,-3.3197,-3.3223,-3.324,-3.3207,-3.3218,-3.3243,-3.3218,-3.3248,-3.3245,-3.3243,-3.3079,-3.3063,-3.3269,-3.3269,-3.3269,-3.3269,-3.3269,-3.3269,-3.3307,-3.336,-3.3332,-3.3381,-3.3364,-3.3392,-3.3393,-3.3392,-3.3385,-3.3416,-3.3429,-3.3408,-3.3389,-3.3399,-3.3413,-3.3403,-3.341,-3.345,-3.3431,-3.3278,-3.3255,-3.3233,-3.3217,-3.3452,-3.3453,-3.3593,-3.3594,-3.3595]},{"header":{"parameterUnit":"m.s-1","parameterCategory":1,"la1":30.2991,"la2":30.254,"lo1":-89.0895,"lo2":-89.0444,"dy":0.0017,"dx":0.0017,"nx":28,"ny":28,"refTime":"2025-09-02T09:00:00:Z","depth":0,"parameterNumber":3,"parameterNumberName":"V-component_of_WINDS"},"data":[0,0,0,0,0,0,0,0,0,0,0,0,0,0,0,0,0,0,0,0,0,0,0,0,0,0,0,0,0,0,0,0,0,0,0,0,0,0,0,0,0,0,0,0,0,0,0,0,0,0,0,0,0,0,0,0,0,0,2.3544,2.3544,0,2.3517,2.3517,2.3516,2.3533,2.3534,2.3534,2.3535,2.35,2.3498,2.3497,0,0,0,0,0,0,0,0,0,0,0,0,0,2.3604,2.3603,2.3544,2.3544,2.3543,2.3517,2.3517,2.3516,2.3533,2.3534,2.3535,2.3535,2.35,2.3498,2.3496,0,0,0,0,0,0,0,0,0,0,0,0,0,2.3577,2.3602,2.3544,2.3548,2.3549,2.3517,2.3517,2.3516,2.3532,2.3534,2.3535,2.3536,2.3501,2.3499,2.3496,2.3456,0,0,2.3488,2.3487,0,0,0,0,0,0,0,0,2.3579,2.3575,2.3548,2.3548,2.3548,2.353,2.3525,2.3496,2.3532,2.3538,2.3535,2.3537,2.3508,2.3505,2.3497,2.3455,2.3453,2.3488,2.3487,2.3486,2.3485,0,0,0,0,0,0,0,2.358,2.3576,2.3533,2.3548,2.3548,2.355,2.3547,2.3519,2.3516,2.3538,2.3539,2.3536,2.3508,2.35,2.3497,2.3453,2.3488,2.3486,2.3484,2.3483,2.3376,2.3375,0,0,0,0,0,0,2.3583,2.3578,2.3534,2.3532,2.3567,2.3548,2.3545,2.3534,2.3517,2.3516,2.3535,2.3537,2.3503,2.3499,2.3495,2.3447,2.3486,2.3483,2.3482,2.3377,2.3376,2.3374,0,0,0,0,0,0,2.3584,2.3579,2.3535,2.3555,2.355,2.3546,2.3533,2.3533,2.3524,2.3515,2.3514,2.3527,2.3504,2.3499,2.3467,2.3446,2.3482,2.348,2.3379,2.3377,2.3375,2.3351,0,0,0,0,0,0,2.3586,2.3579,2.3565,2.3555,2.3549,2.3508,2.3532,2.3532,2.3521,2.3523,2.3507,2.3505,2.3505,2.347,2.3464,2.3443,2.3478,2.3381,2.3378,2.3376,2.3353,2.3348,2.3344,0,0,0,0,0,2.3588,2.3558,2.3564,2.3559,2.3532,2.3507,2.3503,2.3505,2.3519,2.3504,2.3498,2.3506,2.345,2.3467,2.346,2.3438,2.3382,2.3379,2.3376,2.3356,2.3349,2.3344,0,0,0,0,0,0,2.3562,2.3556,2.3564,2.353,2.3519,2.351,2.3491,2.3498,2.3481,2.3484,2.3485,2.3481,2.3447,2.344,2.3458,2.3399,2.3418,2.3413,2.3405,2.3399,2.3394,2.3396,2.3476,0,0,0,0,0,2.3554,2.3536,2.3531,2.3501,2.3496,2.3495,2.3484,2.3487,2.3475,2.3469,2.3461,2.3447,2.3427,2.3413,2.3393,2.3354,2.3349,2.3335,2.3331,2.3327,2.3322,2.33,2.3293,2.3365,2.3365,2.3365,0,0,2.3533,2.3528,2.3516,2.3496,2.3488,2.3469,2.349,2.3468,2.3453,2.3465,2.3434,2.3428,2.3413,2.3377,2.336,2.3369,2.3302,2.3323,2.332,2.3317,2.3296,2.3289,2.3283,2.3362,2.3363,2.3363,0,0,2.3487,2.3482,2.3457,2.3449,2.3438,2.3438,2.3432,2.3422,2.3419,2.339,2.3399,2.338,2.3344,2.3333,2.3322,2.3274,2.328,2.3268,2.3242,2.322,2.3215,2.321,2.3191,2.3185,2.3264,2.3264,2.3264,0,2.3462,2.3435,2.3442,2.342,2.341,2.3425,2.3398,2.339,2.3372,2.3364,2.3375,2.3332,2.3323,2.3284,2.3273,2.3264,2.3256,2.3268,2.3216,2.3211,2.3206,2.3188,2.3181,2.3262,2.3262,2.3262,2.3262,0,2.3405,2.3386,2.3367,2.3353,2.3341,2.3317,2.3319,2.3306,2.3311,2.3308,2.3277,2.3267,2.3246,2.3238,2.324,2.3199,2.3205,2.3216,2.3235,2.3198,2.3181,2.3174,2.326,2.326,2.3261,2.3261,0,0,2.3339,2.3331,2.3324,2.3318,2.3308,2.3292,2.3268,2.3251,2.3239,2.3227,2.3205,2.3177,2.3187,2.3176,2.3178,2.3159,2.3121,2.3172,2.3172,2.3162,2.3073,2.3063,2.3056,2.3126,2.3125,2.3124,2.3074,0,2.3291,2.3252,2.3258,2.322,2.3201,2.3216,2.3195,2.3186,2.3184,2.3166,2.3163,2.3143,2.3159,2.3152,2.3135,2.3129,2.3103,2.3133,2.3104,2.3102,2.3105,2.3047,2.3036,2.299,2.3068,2.3067,2.3066,0,2.3228,2.3217,2.3177,2.3171,2.3164,2.3145,2.313,2.3114,2.3104,2.3104,2.3092,2.3098,2.3072,2.3094,2.3058,2.3079,2.3067,2.3063,2.3061,2.3056,2.308,2.3039,2.2975,2.2967,2.3056,2.3057,2.3057,0,2.3182,2.3157,2.313,2.3124,2.3117,2.3104,2.3099,2.3091,2.308,2.3066,2.3059,2.3041,2.3031,2.3016,2.3017,2.3033,2.298,2.3001,2.2977,2.2977,2.2962,2.2963,2.2894,2.2959,2.2959,2.2959,2.2959,0,2.3126,2.3101,2.3109,2.3092,2.3064,2.3072,2.3043,2.3041,2.3033,2.3015,2.3026,2.3008,2.3011,2.2992,2.2992,2.2962,2.2957,2.2955,2.2955,2.2953,2.2953,2.2943,2.2945,2.2957,2.2958,2.2958,2.2958,0,2.3068,2.3073,2.3045,2.3042,2.304,2.3019,2.3016,2.2999,2.2999,2.2976,2.297,2.297,2.2949,2.2949,2.2924,2.2924,2.2886,2.2891,2.289,2.2891,2.2865,2.2867,2.2786,2.2775,2.2849,2.2848,2.2848,0,2.3031,2.3012,2.3008,2.2998,2.2994,2.2977,2.2967,2.2975,2.2963,2.2951,2.2935,2.2916,2.2901,2.2866,2.2862,2.2843,2.2846,2.2819,2.2843,2.2841,2.2843,2.2844,2.2841,2.2813,2.2812,2.2812,2.2811,0,2.2964,2.2968,2.2955,2.2942,2.2931,2.2921,2.2911,2.2902,2.2908,2.2894,2.2875,2.2863,2.284,2.282,2.2802,2.2796,2.2803,2.2805,2.2798,2.2794,2.2794,2.2792,2.2876,2.2805,2.2806,2.2806,2.2807,2.2807,2.2914,2.2898,2.2894,2.2878,2.2873,2.2864,2.2849,2.2849,2.2833,2.2816,2.2822,2.2799,2.2789,2.2767,2.2759,2.274,2.2749,2.2739,2.2736,2.2733,2.273,2.2799,2.2737,2.2737,2.2737,2.2738,2.2738,0,2.2846,2.2845,2.2831,2.2819,2.2807,2.282,2.2811,2.2799,2.2779,2.2771,2.2757,2.2734,2.2716,2.2711,2.2693,2.2678,2.2682,2.2673,2.2673,2.2671,2.2723,2.2731,2.2671,2.2671,2.2671,2.2671,2.2671,2.2671,2.2809,2.2783,2.2787,2.2758,2.2756,2.2736,2.273,2.2722,2.2715,2.269,2.2676,2.2675,2.2667,2.2649,2.2632,2.2631,2.2623,2.2612,2.2612,2.2661,2.2667,2.2674,2.268,2.2611,2.2611,2.2561,2.2561,2.2561]}]]